[[{"header":{"parameterUnit":"m.s-1","parameterCategory":2,"la1":30.2991,"la2":30.254,"lo1":-89.0895,"lo2":-89.0444,"dy":0.0017,"dx":0.0017,"nx":28,"ny":28,"refTime":"2026-01-31T03:00:00:Z","depth":"0","parameterNumber":2,"parameterNumberName":"U-component_of_CURRENTS"},"data":[0,0,0,0,0,0,0,0,0,0,0,0,0,0,0,0,0,0,0,0,0,0,0,0,0,0,0,0,0,0,0,0,0,0,0,0,0,0,0,0,0,0,0,0,0,0,0,0,0,0,0,0,0,0,0,0,0,0,-0.2317,-0.2318,0,-0.2367,-0.2368,-0.2368,-0.2352,-0.2351,-0.235,-0.2349,-0.2431,-0.2434,-0.2437,0,0,0,0,0,0,0,0,0,0,0,0,0,-0.2259,-0.2259,-0.2317,-0.2318,-0.2319,-0.2367,-0.2368,-0.2368,-0.2352,-0.2351,-0.2349,-0.2348,-0.243,-0.2433,-0.2437,0,0,0,0,0,0,0,0,0,0,0,0,0,-0.2293,-0.226,-0.2317,-0.2317,-0.2317,-0.2367,-0.2368,-0.2369,-0.2352,-0.235,-0.2349,-0.2348,-0.2429,-0.2433,-0.2438,-0.2497,0,0,-0.2452,-0.2454,0,0,0,0,0,0,0,0,-0.2291,-0.2295,-0.2316,-0.2317,-0.2318,-0.2352,-0.2377,-0.2413,-0.2352,-0.2338,-0.2349,-0.2347,-0.2409,-0.2416,-0.2427,-0.2501,-0.2504,-0.2453,-0.2455,-0.2457,-0.2459,0,0,0,0,0,0,0,-0.2289,-0.2293,-0.2336,-0.2317,-0.2318,-0.2332,-0.2335,-0.2384,-0.2381,-0.2339,-0.2338,-0.2346,-0.241,-0.2422,-0.2428,-0.2505,-0.2452,-0.2457,-0.2459,-0.2461,-0.2606,-0.2607,0,0,0,0,0,0,-0.2283,-0.2291,-0.2334,-0.2338,-0.2301,-0.2334,-0.2337,-0.2342,-0.238,-0.2384,-0.2347,-0.2345,-0.2415,-0.2423,-0.2431,-0.2467,-0.2457,-0.2462,-0.2464,-0.2605,-0.2606,-0.2607,0,0,0,0,0,0,-0.2282,-0.2287,-0.2332,-0.2316,-0.2323,-0.2336,-0.2342,-0.2344,-0.2349,-0.2386,-0.239,-0.235,-0.2414,-0.2425,-0.2464,-0.2471,-0.2464,-0.2468,-0.2603,-0.2605,-0.2606,-0.2562,0,0,0,0,0,0,-0.228,-0.2286,-0.2285,-0.2316,-0.2324,-0.2352,-0.2344,-0.2346,-0.2357,-0.2354,-0.2391,-0.2397,-0.2414,-0.2457,-0.2469,-0.2477,-0.2472,-0.2602,-0.2604,-0.2606,-0.2562,-0.2562,-0.2561,0,0,0,0,0,-0.2278,-0.228,-0.2284,-0.229,-0.2322,-0.2353,-0.2358,-0.2362,-0.2359,-0.2361,-0.2383,-0.2395,-0.2477,-0.2462,-0.2475,-0.2485,-0.2601,-0.2604,-0.2606,-0.2562,-0.2562,-0.2561,0,0,0,0,0,0,-0.2252,-0.228,-0.2285,-0.2294,-0.2318,-0.235,-0.2354,-0.2365,-0.2386,-0.2383,-0.2411,-0.242,-0.2457,-0.2486,-0.2468,-0.2535,-0.2541,-0.2547,-0.2504,-0.2504,-0.2503,-0.2488,-0.2476,0,0,0,0,0,-0.2248,-0.2255,-0.2288,-0.2295,-0.2306,-0.2333,-0.2345,-0.2353,-0.2379,-0.2385,-0.2411,-0.2446,-0.2482,-0.2501,-0.2539,-0.2582,-0.2583,-0.2599,-0.2598,-0.2597,-0.2596,-0.2606,-0.2605,-0.2615,-0.2615,-0.2614,0,0,-0.224,-0.2257,-0.226,-0.229,-0.2308,-0.2327,-0.2335,-0.2354,-0.2367,-0.2396,-0.2417,-0.2449,-0.2495,-0.253,-0.255,-0.2551,-0.2593,-0.26,-0.2599,-0.2598,-0.2608,-0.2607,-0.2605,-0.2616,-0.2616,-0.2616,0,0,-0.2233,-0.2244,-0.2249,-0.2271,-0.23,-0.232,-0.2326,-0.236,-0.2366,-0.24,-0.242,-0.2451,-0.2511,-0.2536,-0.2559,-0.2588,-0.2591,-0.2607,-0.2591,-0.26,-0.2598,-0.2597,-0.2574,-0.2571,-0.2605,-0.2604,-0.2604,0,-0.2224,-0.2231,-0.2256,-0.2272,-0.2284,-0.2316,-0.2327,-0.2349,-0.2389,-0.2399,-0.2398,-0.2475,-0.2511,-0.2552,-0.2557,-0.2584,-0.258,-0.2582,-0.2596,-0.2595,-0.2594,-0.2571,-0.2568,-0.2603,-0.2603,-0.2603,-0.2603,0,-0.2223,-0.223,-0.2236,-0.2262,-0.2283,-0.2297,-0.2333,-0.2352,-0.2365,-0.2386,-0.2421,-0.2464,-0.2504,-0.2526,-0.2551,-0.2575,-0.2568,-0.259,-0.2586,-0.259,-0.2566,-0.2564,-0.26,-0.2601,-0.2601,-0.2602,0,0,-0.2194,-0.2227,-0.2228,-0.2233,-0.2275,-0.2292,-0.2318,-0.2346,-0.2355,-0.239,-0.24,-0.2461,-0.2476,-0.2505,-0.254,-0.2552,-0.2539,-0.2567,-0.2569,-0.2525,-0.2531,-0.2443,-0.2432,-0.256,-0.256,-0.256,-0.2506,0,-0.2181,-0.2193,-0.2219,-0.2231,-0.2238,-0.2277,-0.2297,-0.233,-0.2354,-0.2374,-0.2413,-0.244,-0.2471,-0.2486,-0.2504,-0.2543,-0.2536,-0.255,-0.2552,-0.2552,-0.2457,-0.2428,-0.2373,-0.2313,-0.2504,-0.2503,-0.2503,0,-0.2166,-0.2173,-0.2179,-0.2204,-0.2211,-0.2227,-0.2256,-0.228,-0.2324,-0.2341,-0.2372,-0.2404,-0.244,-0.2459,-0.2494,-0.25,-0.2508,-0.2525,-0.2524,-0.2457,-0.246,-0.2349,-0.2302,-0.2151,-0.25,-0.25,-0.25,0,-0.2116,-0.2143,-0.214,-0.215,-0.219,-0.2197,-0.2218,-0.2262,-0.2276,-0.2315,-0.2325,-0.2371,-0.2389,-0.2418,-0.2452,-0.2474,-0.247,-0.2505,-0.2423,-0.2416,-0.2377,-0.2366,-0.217,-0.2507,-0.2507,-0.2507,-0.2508,0,-0.2082,-0.2079,-0.2114,-0.211,-0.2108,-0.2154,-0.2155,-0.2188,-0.2226,-0.2234,-0.2298,-0.2309,-0.2381,-0.2394,-0.2426,-0.24,-0.2443,-0.2402,-0.2395,-0.2357,-0.2346,-0.2222,-0.2159,-0.2505,-0.2506,-0.2506,-0.2507,0,-0.2026,-0.2048,-0.2047,-0.2076,-0.2082,-0.208,-0.2109,-0.2105,-0.2159,-0.2172,-0.2181,-0.2254,-0.2268,-0.231,-0.2348,-0.2346,-0.2239,-0.2324,-0.2252,-0.2237,-0.2012,-0.1951,-0.1765,-0.1676,-0.2218,-0.2216,-0.2214,0,-0.1996,-0.199,-0.2008,-0.1991,-0.1998,-0.2002,-0.1994,-0.2055,-0.2061,-0.2132,-0.2129,-0.216,-0.2168,-0.2172,-0.2192,-0.2186,-0.2111,-0.2101,-0.2134,-0.1958,-0.1887,-0.1854,-0.1791,-0.2062,-0.2059,-0.2056,-0.2054,0,-0.1933,-0.1942,-0.1931,-0.1899,-0.1885,-0.1877,-0.1882,-0.1885,-0.1954,-0.1975,-0.2001,-0.2017,-0.2052,-0.2025,-0.2011,-0.2018,-0.1935,-0.2043,-0.1898,-0.1757,-0.1675,-0.1601,-0.2117,-0.2031,-0.2033,-0.2035,-0.2036,-0.2037,-0.1875,-0.1848,-0.1824,-0.1785,-0.1766,-0.1733,-0.1679,-0.1716,-0.1716,-0.1729,-0.1836,-0.182,-0.1864,-0.1854,-0.1818,-0.1688,-0.1741,-0.164,-0.1583,-0.1568,-0.1456,-0.1885,-0.177,-0.177,-0.1771,-0.1772,-0.1772,0,-0.1786,-0.1749,-0.1704,-0.1641,-0.1562,-0.1598,-0.1574,-0.1512,-0.1471,-0.1553,-0.157,-0.1572,-0.1529,-0.1524,-0.1432,-0.1265,-0.1258,-0.1169,-0.1121,-0.1086,-0.1498,-0.1463,-0.123,-0.123,-0.1231,-0.1231,-0.1231,-0.1231,-0.173,-0.1647,-0.1615,-0.1449,-0.1391,-0.1255,-0.1209,-0.1171,-0.1193,-0.1178,-0.1186,-0.1253,-0.1303,-0.112,-0.0894,-0.0855,-0.0682,-0.0665,-0.0594,-0.0884,-0.0925,-0.0964,-0.0914,-0.057,-0.0569,-0.0204,-0.02,-0.0197]},{"header":{"parameterUnit":"m.s-1","parameterCategory":2,"la1":30.2991,"la2":30.254,"lo1":-89.0895,"lo2":-89.0444,"dy":0.0017,"dx":0.0017,"nx":28,"ny":28,"refTime":"2026-01-31T03:00:00:Z","depth":"0","parameterNumber":3,"parameterNumberName":"V-component_of_CURRENTS"},"data":[0,0,0,0,0,0,0,0,0,0,0,0,0,0,0,0,0,0,0,0,0,0,0,0,0,0,0,0,0,0,0,0,0,0,0,0,0,0,0,0,0,0,0,0,0,0,0,0,0,0,0,0,0,0,0,0,0,0,-0.0501,-0.0501,0,-0.0473,-0.0473,-0.0472,-0.0427,-0.0426,-0.0426,-0.0425,-0.0319,-0.0317,-0.0315,0,0,0,0,0,0,0,0,0,0,0,0,0,-0.0523,-0.0523,-0.0501,-0.0501,-0.05,-0.0473,-0.0473,-0.0472,-0.0427,-0.0426,-0.0425,-0.0425,-0.032,-0.0318,-0.0315,0,0,0,0,0,0,0,0,0,0,0,0,0,-0.0505,-0.0523,-0.0501,-0.0475,-0.0473,-0.0473,-0.0473,-0.0472,-0.0427,-0.0426,-0.0425,-0.0424,-0.0321,-0.0318,-0.0315,-0.0317,0,0,-0.0305,-0.0303,0,0,0,0,0,0,0,0,-0.0506,-0.0504,-0.0479,-0.0477,-0.0474,-0.0453,-0.0442,-0.0417,-0.0428,-0.0443,-0.0425,-0.0424,-0.0359,-0.0352,-0.0349,-0.0312,-0.0307,-0.0305,-0.0303,-0.0301,-0.03,0,0,0,0,0,0,0,-0.0507,-0.0505,-0.0489,-0.0479,-0.0476,-0.0468,-0.0464,-0.0437,-0.0405,-0.0442,-0.0439,-0.0438,-0.0356,-0.0352,-0.0346,-0.0305,-0.0305,-0.0302,-0.03,-0.0299,-0.027,-0.0271,0,0,0,0,0,0,-0.0514,-0.0506,-0.049,-0.0488,-0.0489,-0.0469,-0.0464,-0.046,-0.0407,-0.0399,-0.0439,-0.0436,-0.0358,-0.035,-0.0342,-0.0345,-0.0301,-0.0298,-0.0296,-0.0269,-0.0271,-0.0272,0,0,0,0,0,0,-0.0515,-0.0513,-0.0491,-0.0498,-0.0494,-0.047,-0.0466,-0.046,-0.0451,-0.0406,-0.0396,-0.0435,-0.0357,-0.0346,-0.0327,-0.034,-0.0297,-0.0294,-0.0268,-0.027,-0.0271,-0.0348,0,0,0,0,0,0,-0.0515,-0.0513,-0.0513,-0.0498,-0.0494,-0.0496,-0.0467,-0.0461,-0.0453,-0.0449,-0.0399,-0.0388,-0.0355,-0.0332,-0.0324,-0.0335,-0.0291,-0.0266,-0.0269,-0.0271,-0.0344,-0.0352,-0.0359,0,0,0,0,0,-0.0516,-0.052,-0.0513,-0.0511,-0.0495,-0.0496,-0.0494,-0.0472,-0.0454,-0.0458,-0.0428,-0.039,-0.034,-0.0331,-0.032,-0.0331,-0.0265,-0.0268,-0.027,-0.0341,-0.0351,-0.0359,0,0,0,0,0,0,-0.0527,-0.0516,-0.0508,-0.0507,-0.0505,-0.0489,-0.0489,-0.0476,-0.0457,-0.0448,-0.0402,-0.0391,-0.0381,-0.0349,-0.034,-0.0331,-0.0297,-0.0298,-0.0354,-0.0363,-0.037,-0.0378,-0.0289,0,0,0,0,0,-0.0532,-0.0531,-0.0523,-0.0523,-0.0524,-0.0508,-0.0505,-0.0493,-0.0476,-0.0466,-0.0435,-0.0404,-0.0386,-0.0368,-0.0347,-0.0338,-0.031,-0.034,-0.0348,-0.0354,-0.0356,-0.0333,-0.0338,-0.028,-0.028,-0.028,0,0,-0.0536,-0.053,-0.0529,-0.0526,-0.052,-0.0533,-0.0503,-0.0503,-0.0512,-0.0457,-0.0456,-0.0429,-0.0392,-0.0388,-0.038,-0.0359,-0.0359,-0.0358,-0.0363,-0.0361,-0.0336,-0.0342,-0.0346,-0.0282,-0.0282,-0.0282,0,0,-0.0552,-0.054,-0.0549,-0.0553,-0.0552,-0.0548,-0.055,-0.0541,-0.0534,-0.0534,-0.0501,-0.0487,-0.0453,-0.0436,-0.0421,-0.0457,-0.0403,-0.0447,-0.0485,-0.0463,-0.0467,-0.0471,-0.0452,-0.0453,-0.0446,-0.0446,-0.0447,0,-0.0559,-0.0567,-0.0554,-0.0569,-0.0576,-0.0558,-0.0578,-0.0576,-0.0562,-0.056,-0.0541,-0.0508,-0.0479,-0.0474,-0.0491,-0.0473,-0.045,-0.0452,-0.0473,-0.0475,-0.0477,-0.0457,-0.0457,-0.045,-0.045,-0.045,-0.0449,0,-0.0585,-0.0594,-0.0601,-0.0615,-0.0624,-0.0635,-0.0636,-0.0642,-0.0631,-0.0622,-0.0616,-0.0583,-0.056,-0.0555,-0.0532,-0.0537,-0.0513,-0.0488,-0.0449,-0.0488,-0.0464,-0.0463,-0.0456,-0.0455,-0.0454,-0.0453,0,0,-0.0597,-0.0616,-0.0619,-0.0637,-0.0648,-0.066,-0.0681,-0.0693,-0.0702,-0.0688,-0.0692,-0.0674,-0.0647,-0.063,-0.06,-0.0583,-0.0587,-0.0546,-0.0543,-0.0527,-0.0539,-0.0551,-0.055,-0.0561,-0.0561,-0.0561,-0.052,0,-0.0623,-0.0658,-0.0662,-0.0703,-0.0724,-0.0722,-0.0744,-0.0752,-0.0746,-0.0748,-0.0716,-0.0706,-0.0678,-0.0665,-0.0649,-0.0598,-0.0585,-0.06,-0.0504,-0.0501,-0.0506,-0.055,-0.0658,-0.0633,-0.0518,-0.0518,-0.0518,0,-0.0654,-0.0673,-0.0712,-0.0748,-0.0756,-0.0781,-0.0807,-0.0821,-0.0819,-0.081,-0.0793,-0.0762,-0.0743,-0.0709,-0.0649,-0.0657,-0.061,-0.057,-0.0567,-0.0549,-0.0511,-0.0573,-0.0634,-0.0658,-0.0515,-0.0515,-0.0515,0,-0.0676,-0.0714,-0.0745,-0.0757,-0.0791,-0.0812,-0.0829,-0.0839,-0.085,-0.0843,-0.0842,-0.0808,-0.0785,-0.0729,-0.0655,-0.0649,-0.058,-0.0557,-0.0525,-0.0525,-0.0583,-0.0588,-0.0656,-0.0519,-0.0519,-0.0519,-0.0519,0,-0.0708,-0.0736,-0.0758,-0.078,-0.0823,-0.0834,-0.0872,-0.0884,-0.0888,-0.0905,-0.087,-0.087,-0.0787,-0.0738,-0.067,-0.0599,-0.059,-0.0543,-0.052,-0.0615,-0.0623,-0.0617,-0.0593,-0.0517,-0.0518,-0.0518,-0.0518,0,-0.0732,-0.0744,-0.0786,-0.0822,-0.0838,-0.0867,-0.0905,-0.0926,-0.0925,-0.0946,-0.0944,-0.091,-0.0854,-0.0768,-0.0671,-0.0621,-0.0552,-0.0521,-0.064,-0.0633,-0.0637,-0.0612,-0.0558,-0.0527,-0.0492,-0.0492,-0.0492,0,-0.0747,-0.0767,-0.0815,-0.084,-0.0861,-0.0899,-0.0928,-0.0945,-0.0967,-0.0975,-0.0988,-0.0941,-0.0932,-0.08,-0.0713,-0.0611,-0.0556,-0.0622,-0.0636,-0.0667,-0.0623,-0.0561,-0.0533,-0.0745,-0.0747,-0.0749,-0.075,0,-0.0768,-0.0781,-0.0811,-0.0863,-0.0902,-0.0948,-0.099,-0.1018,-0.1037,-0.1058,-0.1078,-0.1072,-0.098,-0.0956,-0.0817,-0.0736,-0.0652,-0.0654,-0.0665,-0.0816,-0.0774,-0.0725,-0.0733,-0.0766,-0.0765,-0.0764,-0.0763,-0.0762,-0.0773,-0.0795,-0.0827,-0.0875,-0.0926,-0.0987,-0.1024,-0.1082,-0.113,-0.1194,-0.1173,-0.1226,-0.1206,-0.1053,-0.0931,-0.0853,-0.0738,-0.0846,-0.0809,-0.0738,-0.0735,-0.0775,-0.0792,-0.0791,-0.079,-0.0789,-0.0788,0,-0.0762,-0.0785,-0.0835,-0.0891,-0.0941,-0.0971,-0.1052,-0.1098,-0.1172,-0.1299,-0.1343,-0.1446,-0.1411,-0.1308,-0.1195,-0.1074,-0.0973,-0.0995,-0.0973,-0.0929,-0.098,-0.1024,-0.1121,-0.1121,-0.1121,-0.1121,-0.1121,-0.1121,-0.0754,-0.0778,-0.0801,-0.0873,-0.0918,-0.0982,-0.1026,-0.1137,-0.1253,-0.1456,-0.1587,-0.1665,-0.1666,-0.1454,-0.1296,-0.1211,-0.1098,-0.107,-0.0939,-0.1055,-0.104,-0.1025,-0.1065,-0.1169,-0.1169,-0.0938,-0.0937,-0.0936]}],[{"header":{"parameterUnit":"m.s-1","parameterCategory":2,"la1":30.2991,"la2":30.254,"lo1":-89.0895,"lo2":-89.0444,"dy":0.0017,"dx":0.0017,"nx":28,"ny":28,"refTime":"2026-01-31T03:00:00:Z","depth":"2","parameterNumber":2,"parameterNumberName":"U-component_of_CURRENTS"},"data":[0,0,0,0,0,0,0,0,0,0,0,0,0,0,0,0,0,0,0,0,0,0,0,0,0,0,0,0,0,0,0,0,0,0,0,0,0,0,0,0,0,0,0,0,0,0,0,0,0,0,0,0,0,0,0,0,0,0,-0.2325,-0.2325,0,-0.2375,-0.2375,-0.2376,-0.236,-0.2359,-0.2358,-0.2357,-0.2439,-0.2442,-0.2445,0,0,0,0,0,0,0,0,0,0,0,0,0,-0.2266,-0.2267,-0.2325,-0.2326,-0.2326,-0.2375,-0.2375,-0.2376,-0.236,-0.2359,-0.2357,-0.2356,-0.2438,-0.2441,-0.2445,0,0,0,0,0,0,0,0,0,0,0,0,0,-0.2301,-0.2267,-0.2325,-0.2325,-0.2325,-0.2375,-0.2376,-0.2376,-0.236,-0.2359,-0.2357,-0.2356,-0.2437,-0.2441,-0.2446,-0.2504,0,0,-0.246,-0.2462,0,0,0,0,0,0,0,0,-0.2299,-0.2303,-0.2324,-0.2325,-0.2325,-0.236,-0.2385,-0.2421,-0.236,-0.2346,-0.2357,-0.2355,-0.2417,-0.2423,-0.2434,-0.2508,-0.2512,-0.246,-0.2463,-0.2465,-0.2467,0,0,0,0,0,0,0,-0.2296,-0.2301,-0.2344,-0.2325,-0.2326,-0.234,-0.2342,-0.2392,-0.2389,-0.2347,-0.2346,-0.2354,-0.2417,-0.243,-0.2436,-0.2513,-0.246,-0.2464,-0.2467,-0.2469,-0.2613,-0.2614,0,0,0,0,0,0,-0.2291,-0.2298,-0.2342,-0.2345,-0.2309,-0.2342,-0.2345,-0.235,-0.2388,-0.2392,-0.2355,-0.2353,-0.2423,-0.2431,-0.2439,-0.2475,-0.2465,-0.247,-0.2472,-0.2612,-0.2613,-0.2614,0,0,0,0,0,0,-0.229,-0.2294,-0.234,-0.2324,-0.2331,-0.2344,-0.235,-0.2352,-0.2357,-0.2394,-0.2398,-0.2358,-0.2422,-0.2433,-0.2472,-0.2479,-0.2472,-0.2476,-0.2611,-0.2612,-0.2614,-0.257,0,0,0,0,0,0,-0.2288,-0.2294,-0.2293,-0.2323,-0.2331,-0.236,-0.2352,-0.2354,-0.2365,-0.2362,-0.2399,-0.2405,-0.2421,-0.2465,-0.2476,-0.2485,-0.248,-0.261,-0.2612,-0.2613,-0.257,-0.257,-0.2569,0,0,0,0,0,-0.2285,-0.2287,-0.2292,-0.2297,-0.233,-0.236,-0.2366,-0.237,-0.2367,-0.2369,-0.2391,-0.2403,-0.2485,-0.2469,-0.2483,-0.2493,-0.2609,-0.2611,-0.2613,-0.257,-0.257,-0.2569,0,0,0,0,0,0,-0.2259,-0.2287,-0.2293,-0.2302,-0.2326,-0.2357,-0.2362,-0.2373,-0.2394,-0.2391,-0.2419,-0.2428,-0.2465,-0.2494,-0.2476,-0.2543,-0.2549,-0.2554,-0.2512,-0.2512,-0.2511,-0.2496,-0.2483,0,0,0,0,0,-0.2256,-0.2263,-0.2296,-0.2303,-0.2314,-0.2341,-0.2353,-0.2361,-0.2387,-0.2393,-0.2419,-0.2454,-0.249,-0.2509,-0.2546,-0.2589,-0.259,-0.2606,-0.2606,-0.2605,-0.2604,-0.2613,-0.2613,-0.2622,-0.2622,-0.2622,0,0,-0.2248,-0.2265,-0.2268,-0.2298,-0.2316,-0.2335,-0.2343,-0.2362,-0.2375,-0.2404,-0.2425,-0.2457,-0.2503,-0.2538,-0.2558,-0.2559,-0.26,-0.2608,-0.2607,-0.2606,-0.2615,-0.2614,-0.2613,-0.2623,-0.2623,-0.2623,0,0,-0.2241,-0.2252,-0.2258,-0.2279,-0.2308,-0.2328,-0.2334,-0.2368,-0.2374,-0.2408,-0.2428,-0.2459,-0.2519,-0.2544,-0.2567,-0.2596,-0.2599,-0.2615,-0.2599,-0.2608,-0.2606,-0.2605,-0.2582,-0.2579,-0.2612,-0.2612,-0.2612,0,-0.2232,-0.2239,-0.2264,-0.228,-0.2292,-0.2324,-0.2335,-0.2357,-0.2398,-0.2407,-0.2407,-0.2483,-0.2519,-0.256,-0.2565,-0.2592,-0.2587,-0.259,-0.2604,-0.2603,-0.2602,-0.2579,-0.2576,-0.2611,-0.2611,-0.2611,-0.2611,0,-0.2231,-0.2239,-0.2245,-0.2271,-0.2292,-0.2305,-0.2342,-0.236,-0.2374,-0.2394,-0.243,-0.2472,-0.2512,-0.2534,-0.2559,-0.2584,-0.2576,-0.2598,-0.2594,-0.2598,-0.2574,-0.2572,-0.2608,-0.2609,-0.2609,-0.261,0,0,-0.2203,-0.2236,-0.2236,-0.2242,-0.2284,-0.23,-0.2327,-0.2355,-0.2364,-0.2399,-0.2409,-0.247,-0.2485,-0.2513,-0.2548,-0.2561,-0.2547,-0.2576,-0.2577,-0.2533,-0.2539,-0.2451,-0.244,-0.2568,-0.2568,-0.2568,-0.2514,0,-0.219,-0.2201,-0.2228,-0.224,-0.2247,-0.2286,-0.2306,-0.2339,-0.2363,-0.2383,-0.2422,-0.2449,-0.248,-0.2494,-0.2513,-0.2551,-0.2544,-0.2558,-0.256,-0.256,-0.2465,-0.2436,-0.2257,-0.2187,-0.2512,-0.2512,-0.2511,0,-0.2174,-0.2182,-0.2188,-0.2213,-0.2221,-0.2236,-0.2265,-0.229,-0.2333,-0.235,-0.2381,-0.2413,-0.2449,-0.2468,-0.2503,-0.2509,-0.2517,-0.2533,-0.2532,-0.2465,-0.2468,-0.2244,-0.2171,-0.2508,-0.2508,-0.2508,-0.2509,0,-0.2125,-0.2152,-0.2149,-0.216,-0.2199,-0.2207,-0.2227,-0.2271,-0.2285,-0.2325,-0.2334,-0.238,-0.2397,-0.2426,-0.2461,-0.2482,-0.2478,-0.2513,-0.2431,-0.2424,-0.2279,-0.2259,-0.2515,-0.2515,-0.2515,-0.2515,-0.2516,0,-0.2091,-0.2088,-0.2123,-0.212,-0.2117,-0.2164,-0.2165,-0.2198,-0.2235,-0.2243,-0.2307,-0.2318,-0.239,-0.2403,-0.2435,-0.2408,-0.2451,-0.241,-0.2403,-0.2257,-0.2237,-0.2536,-0.2539,-0.2513,-0.2514,-0.2514,-0.2515,0,-0.2035,-0.2058,-0.2056,-0.2086,-0.2092,-0.209,-0.2118,-0.2115,-0.2169,-0.2181,-0.219,-0.2262,-0.2276,-0.2319,-0.2356,-0.2354,-0.2354,-0.2331,-0.2136,-0.2107,-0.2299,-0.2301,-0.2233,-0.2229,-0.2226,-0.2223,-0.2221,0,-0.2005,-0.1999,-0.2018,-0.2001,-0.2008,-0.2012,-0.2004,-0.2065,-0.2071,-0.2141,-0.2138,-0.2168,-0.2168,-0.2171,-0.2155,-0.2138,-0.2254,-0.1979,-0.1995,-0.2269,-0.227,-0.2277,-0.2283,-0.1778,-0.1773,-0.1768,-0.1765,0,-0.1942,-0.1952,-0.1941,-0.1909,-0.1895,-0.1887,-0.1892,-0.1894,-0.1964,-0.1977,-0.2002,-0.201,-0.2009,-0.191,-0.1882,-0.1869,-0.197,-0.1885,-0.221,-0.1884,-0.1838,-0.184,-0.1861,-0.1724,-0.1728,-0.1731,-0.1733,-0.1735,-0.1885,-0.1858,-0.1834,-0.1795,-0.1776,-0.1743,-0.1689,-0.171,-0.1701,-0.1683,-0.1791,-0.1728,-0.1766,-0.1612,-0.1566,-0.154,-0.1701,-0.1664,-0.168,-0.17,-0.1663,-0.1615,-0.145,-0.1452,-0.1454,-0.1456,-0.1458,0,-0.1793,-0.1759,-0.1714,-0.1651,-0.1573,-0.1608,-0.1584,-0.1515,-0.1446,-0.1465,-0.1439,-0.1324,-0.1233,-0.1288,-0.1178,-0.1192,-0.1195,-0.1163,-0.1167,-0.1208,-0.1244,-0.1186,-0.0845,-0.0844,-0.0842,-0.084,0,0,-0.1737,-0.1653,-0.162,-0.1459,-0.1403,-0.1276,-0.123,-0.1169,-0.115,-0.1084,-0.1036,-0.1064,-0.1188,-0.0963,-0.0962,-0.0882,-0.1027,-0.0837,-0.1326,-0.1366,-0.14,-0.1532,-0.1487,0,0,0,0,0]},{"header":{"parameterUnit":"m.s-1","parameterCategory":2,"la1":30.2991,"la2":30.254,"lo1":-89.0895,"lo2":-89.0444,"dy":0.0017,"dx":0.0017,"nx":28,"ny":28,"refTime":"2026-01-31T03:00:00:Z","depth":"2","parameterNumber":3,"parameterNumberName":"V-component_of_CURRENTS"},"data":[0,0,0,0,0,0,0,0,0,0,0,0,0,0,0,0,0,0,0,0,0,0,0,0,0,0,0,0,0,0,0,0,0,0,0,0,0,0,0,0,0,0,0,0,0,0,0,0,0,0,0,0,0,0,0,0,0,0,-0.0464,-0.0464,0,-0.0436,-0.0436,-0.0436,-0.0391,-0.039,-0.039,-0.0389,-0.0284,-0.0282,-0.028,0,0,0,0,0,0,0,0,0,0,0,0,0,-0.0487,-0.0487,-0.0464,-0.0464,-0.0464,-0.0437,-0.0436,-0.0436,-0.0391,-0.039,-0.0389,-0.0389,-0.0285,-0.0282,-0.028,0,0,0,0,0,0,0,0,0,0,0,0,0,-0.0469,-0.0486,-0.0464,-0.0439,-0.0437,-0.0437,-0.0436,-0.0435,-0.0391,-0.039,-0.0389,-0.0388,-0.0285,-0.0282,-0.0279,-0.028,0,0,-0.0269,-0.0268,0,0,0,0,0,0,0,0,-0.047,-0.0468,-0.0443,-0.0441,-0.0438,-0.0417,-0.0406,-0.038,-0.0392,-0.0407,-0.0389,-0.0388,-0.0323,-0.0317,-0.0313,-0.0275,-0.0271,-0.0269,-0.0267,-0.0266,-0.0265,0,0,0,0,0,0,0,-0.0471,-0.0469,-0.0452,-0.0443,-0.044,-0.0432,-0.0428,-0.0401,-0.0369,-0.0406,-0.0403,-0.0402,-0.0321,-0.0316,-0.031,-0.0269,-0.0269,-0.0266,-0.0264,-0.0263,-0.0234,-0.0236,0,0,0,0,0,0,-0.0478,-0.047,-0.0453,-0.0451,-0.0453,-0.0433,-0.0428,-0.0424,-0.0371,-0.0363,-0.0403,-0.04,-0.0322,-0.0314,-0.0306,-0.0309,-0.0266,-0.0263,-0.0261,-0.0233,-0.0235,-0.0236,0,0,0,0,0,0,-0.0478,-0.0476,-0.0454,-0.0461,-0.0458,-0.0434,-0.0429,-0.0424,-0.0415,-0.037,-0.036,-0.0399,-0.0321,-0.0311,-0.0291,-0.0304,-0.0261,-0.0258,-0.0232,-0.0234,-0.0235,-0.0312,0,0,0,0,0,0,-0.0479,-0.0477,-0.0477,-0.0462,-0.0458,-0.0459,-0.043,-0.0424,-0.0417,-0.0413,-0.0363,-0.0353,-0.032,-0.0297,-0.0288,-0.0299,-0.0256,-0.023,-0.0233,-0.0235,-0.0308,-0.0316,-0.0323,0,0,0,0,0,-0.048,-0.0484,-0.0477,-0.0475,-0.0458,-0.046,-0.0457,-0.0436,-0.0418,-0.0422,-0.0392,-0.0354,-0.0304,-0.0295,-0.0285,-0.0295,-0.0229,-0.0232,-0.0235,-0.0305,-0.0315,-0.0323,0,0,0,0,0,0,-0.0491,-0.0479,-0.0471,-0.0471,-0.0469,-0.0453,-0.0453,-0.044,-0.0421,-0.0412,-0.0366,-0.0355,-0.0345,-0.0313,-0.0304,-0.0296,-0.0261,-0.0262,-0.0318,-0.0327,-0.0335,-0.0343,-0.0253,0,0,0,0,0,-0.0496,-0.0495,-0.0487,-0.0487,-0.0487,-0.0472,-0.0469,-0.0457,-0.0439,-0.043,-0.0399,-0.0369,-0.035,-0.0333,-0.0311,-0.0302,-0.0274,-0.0304,-0.0312,-0.0318,-0.032,-0.0298,-0.0303,-0.0245,-0.0245,-0.0245,0,0,-0.05,-0.0494,-0.0493,-0.049,-0.0484,-0.0496,-0.0467,-0.0467,-0.0476,-0.0421,-0.042,-0.0393,-0.0356,-0.0352,-0.0344,-0.0324,-0.0323,-0.0322,-0.0328,-0.0325,-0.0301,-0.0306,-0.0311,-0.0246,-0.0246,-0.0246,0,0,-0.0516,-0.0504,-0.0514,-0.0517,-0.0516,-0.0512,-0.0514,-0.0505,-0.0498,-0.0498,-0.0465,-0.0451,-0.0417,-0.04,-0.0385,-0.0421,-0.0368,-0.0411,-0.0449,-0.0428,-0.0432,-0.0436,-0.0418,-0.0419,-0.041,-0.0411,-0.0411,0,-0.0523,-0.0531,-0.0518,-0.0533,-0.054,-0.0523,-0.0542,-0.054,-0.0526,-0.0524,-0.0506,-0.0472,-0.0443,-0.0438,-0.0455,-0.0437,-0.0415,-0.0417,-0.0437,-0.044,-0.0442,-0.0422,-0.0423,-0.0415,-0.0414,-0.0414,-0.0413,0,-0.0549,-0.0558,-0.0565,-0.0579,-0.0587,-0.0599,-0.06,-0.0606,-0.0595,-0.0586,-0.058,-0.0547,-0.0524,-0.0519,-0.0496,-0.0501,-0.0478,-0.0453,-0.0414,-0.0453,-0.043,-0.0429,-0.042,-0.0419,-0.0418,-0.0417,0,0,-0.0562,-0.058,-0.0584,-0.0601,-0.0612,-0.0624,-0.0645,-0.0657,-0.0666,-0.0652,-0.0656,-0.0638,-0.0612,-0.0594,-0.0564,-0.0548,-0.0553,-0.0511,-0.0508,-0.0493,-0.0506,-0.0518,-0.0517,-0.0527,-0.0527,-0.0527,-0.0487,0,-0.0588,-0.0623,-0.0626,-0.0667,-0.0687,-0.0686,-0.0708,-0.0715,-0.071,-0.0711,-0.068,-0.067,-0.0643,-0.063,-0.0614,-0.0564,-0.0551,-0.0566,-0.047,-0.0468,-0.0473,-0.0517,-0.0401,-0.0357,-0.0486,-0.0485,-0.0485,0,-0.0619,-0.0637,-0.0677,-0.0712,-0.072,-0.0745,-0.0771,-0.0785,-0.0783,-0.0774,-0.0758,-0.0727,-0.0708,-0.0675,-0.0616,-0.0623,-0.0577,-0.0537,-0.0534,-0.0516,-0.0478,-0.0337,-0.035,-0.0482,-0.0483,-0.0483,-0.0483,0,-0.0642,-0.0679,-0.071,-0.0722,-0.0755,-0.0776,-0.0794,-0.0803,-0.0814,-0.0808,-0.0807,-0.0774,-0.0751,-0.0696,-0.0622,-0.0616,-0.0549,-0.0525,-0.0494,-0.0493,-0.0361,-0.035,-0.0488,-0.0488,-0.0488,-0.0488,-0.0488,0,-0.0674,-0.0702,-0.0723,-0.0745,-0.0788,-0.0799,-0.0837,-0.0849,-0.0853,-0.0871,-0.0836,-0.0836,-0.0754,-0.0705,-0.0637,-0.0568,-0.0559,-0.0512,-0.0489,-0.0388,-0.038,-0.0456,-0.0453,-0.0487,-0.0487,-0.0487,-0.0488,0,-0.0698,-0.071,-0.0751,-0.0787,-0.0803,-0.0832,-0.0871,-0.0892,-0.0891,-0.0912,-0.091,-0.0877,-0.0821,-0.0736,-0.064,-0.059,-0.0517,-0.0491,-0.0386,-0.0354,-0.0472,-0.0474,-0.0462,-0.0462,-0.0462,-0.0462,-0.0463,0,-0.0713,-0.0734,-0.0781,-0.0806,-0.0827,-0.0866,-0.0894,-0.0911,-0.0933,-0.0941,-0.0954,-0.0908,-0.0885,-0.0755,-0.0595,-0.0473,-0.0521,-0.0359,-0.0342,-0.0493,-0.0472,-0.0473,-0.0474,-0.0187,-0.0185,-0.0183,-0.0182,0,-0.0735,-0.0748,-0.0777,-0.0829,-0.0869,-0.0914,-0.0957,-0.0984,-0.1003,-0.1006,-0.1027,-0.1008,-0.0853,-0.067,-0.0503,-0.0416,-0.0373,-0.0326,-0.0482,-0.0237,-0.0238,-0.0216,-0.0225,-0.0166,-0.0168,-0.0169,-0.017,-0.0171,-0.074,-0.0762,-0.0794,-0.0842,-0.0893,-0.0953,-0.099,-0.0972,-0.0993,-0.0927,-0.1001,-0.0871,-0.0772,-0.0439,-0.0336,-0.0203,-0.0265,-0.0229,-0.0232,-0.0237,-0.0237,-0.0241,-0.017,-0.0171,-0.0173,-0.0174,-0.0175,0,-0.0704,-0.0753,-0.0802,-0.0858,-0.0876,-0.0938,-0.1018,-0.0953,-0.0905,-0.0828,-0.0766,-0.0579,-0.0407,-0.0305,-0.0056,-0.0012,0.0043,-0.0021,0.0045,0.0029,0.0016,0.003,0.0168,0.0168,0.0169,0.0169,0,0,-0.069,-0.0702,-0.0725,-0.0778,-0.0846,-0.0841,-0.0882,-0.0781,-0.0689,-0.0534,-0.0425,-0.034,-0.0329,-0.0099,-0.0019,0.0087,0.0053,0.0122,-0.0148,-0.0091,-0.0105,-0.0093,-0.0088,0,0,0,0,0]}],[{"header":{"parameterUnit":"m.s-1","parameterCategory":2,"la1":30.2991,"la2":30.254,"lo1":-89.0895,"lo2":-89.0444,"dy":0.0017,"dx":0.0017,"nx":28,"ny":28,"refTime":"2026-01-31T03:00:00:Z","depth":"4","parameterNumber":2,"parameterNumberName":"U-component_of_CURRENTS"},"data":[0,0,0,0,0,0,0,0,0,0,0,0,0,0,0,0,0,0,0,0,0,0,0,0,0,0,0,0,0,0,0,0,0,0,0,0,0,0,0,0,0,0,0,0,0,0,0,0,0,0,0,0,0,0,0,0,0,0,-0.1515,-0.1516,0,-0.1584,-0.1584,-0.1585,-0.1625,-0.1625,-0.1625,-0.1625,-0.1736,-0.1739,-0.1742,0,0,0,0,0,0,0,0,0,0,0,0,0,-0.1449,-0.145,-0.1515,-0.1516,-0.1516,-0.1583,-0.1584,-0.1585,-0.1625,-0.1625,-0.1625,-0.1626,-0.1735,-0.1739,-0.1742,0,0,0,0,0,0,0,0,0,0,0,0,0,-0.1494,-0.145,-0.1515,-0.1544,-0.1547,-0.1583,-0.1584,-0.1586,-0.1625,-0.1625,-0.1625,-0.1626,-0.1734,-0.1738,-0.1743,-0.1765,0,0,-0.1756,-0.1757,0,0,0,0,0,0,0,0,-0.1491,-0.1496,-0.1539,-0.1542,-0.1546,-0.1596,-0.1602,-0.1648,-0.1625,-0.1596,-0.1625,-0.1626,-0.1693,-0.1701,-0.1713,-0.177,-0.1775,-0.1756,-0.1758,-0.176,-0.1761,0,0,0,0,0,0,0,-0.1488,-0.1494,-0.1542,-0.154,-0.1544,-0.1565,-0.1571,-0.1611,-0.1643,-0.1598,-0.1601,-0.1609,-0.1695,-0.1708,-0.1716,-0.1776,-0.1756,-0.176,-0.1762,-0.1764,-0.1917,-0.1919,0,0,0,0,0,0,-0.1477,-0.149,-0.154,-0.1544,-0.1518,-0.1566,-0.1573,-0.158,-0.1642,-0.1651,-0.1608,-0.161,-0.1701,-0.1711,-0.172,-0.1795,-0.176,-0.1764,-0.1767,-0.1916,-0.1917,-0.1919,0,0,0,0,0,0,-0.1476,-0.1481,-0.1537,-0.1519,-0.1527,-0.1566,-0.1574,-0.1581,-0.1619,-0.1649,-0.1659,-0.1641,-0.1702,-0.1714,-0.1771,-0.1798,-0.1766,-0.177,-0.1914,-0.1916,-0.1918,-0.1916,0,0,0,0,0,0,-0.1473,-0.148,-0.1497,-0.1518,-0.1528,-0.1572,-0.1574,-0.1582,-0.1621,-0.1625,-0.1681,-0.169,-0.1703,-0.1765,-0.1775,-0.1803,-0.1773,-0.1912,-0.1915,-0.1917,-0.1914,-0.1918,-0.1921,0,0,0,0,0,-0.1471,-0.1486,-0.1497,-0.1504,-0.1545,-0.1572,-0.158,-0.1608,-0.1623,-0.1643,-0.1679,-0.1689,-0.1791,-0.1769,-0.1781,-0.1811,-0.191,-0.1914,-0.1917,-0.1913,-0.1917,-0.1921,0,0,0,0,0,0,-0.1471,-0.1492,-0.1505,-0.1528,-0.1556,-0.1579,-0.1606,-0.1624,-0.1668,-0.1681,-0.1708,-0.1719,-0.1778,-0.18,-0.1776,-0.1865,-0.1854,-0.186,-0.1846,-0.1851,-0.1854,-0.1839,-0.1777,0,0,0,0,0,-0.1477,-0.1496,-0.1518,-0.1542,-0.1556,-0.1587,-0.1609,-0.1627,-0.1661,-0.1682,-0.1719,-0.1763,-0.1799,-0.1829,-0.1864,-0.1917,-0.1907,-0.1946,-0.1949,-0.1952,-0.1949,-0.1954,-0.1956,-0.193,-0.193,-0.193,0,0,-0.1487,-0.1501,-0.1514,-0.1545,-0.157,-0.1594,-0.1602,-0.164,-0.1666,-0.1688,-0.1749,-0.1779,-0.1816,-0.1867,-0.1896,-0.1891,-0.1954,-0.1956,-0.1958,-0.1954,-0.1957,-0.196,-0.1961,-0.1933,-0.1932,-0.1932,0,0,-0.1503,-0.1526,-0.1544,-0.1565,-0.1603,-0.1619,-0.1635,-0.1674,-0.1701,-0.1754,-0.1774,-0.1819,-0.1886,-0.1909,-0.1929,-0.1979,-0.197,-0.2001,-0.201,-0.2014,-0.2015,-0.2017,-0.1995,-0.1994,-0.2005,-0.2005,-0.2005,0,-0.1518,-0.1535,-0.1557,-0.1576,-0.1597,-0.1632,-0.1655,-0.1687,-0.1742,-0.1763,-0.1777,-0.1864,-0.1902,-0.1946,-0.1964,-0.1986,-0.1975,-0.1985,-0.2015,-0.2016,-0.2017,-0.1995,-0.1994,-0.2005,-0.2005,-0.2005,-0.2005,0,-0.1533,-0.1559,-0.1574,-0.1607,-0.1634,-0.1662,-0.1697,-0.1736,-0.1773,-0.1797,-0.1857,-0.19,-0.1944,-0.1971,-0.1985,-0.202,-0.2004,-0.2013,-0.1995,-0.2019,-0.1995,-0.1994,-0.2006,-0.2006,-0.2006,-0.2006,0,0,-0.1529,-0.1575,-0.1583,-0.1601,-0.165,-0.167,-0.1719,-0.176,-0.1786,-0.1844,-0.1873,-0.1944,-0.196,-0.1984,-0.201,-0.2025,-0.2026,-0.2025,-0.2025,-0.1985,-0.2012,-0.188,-0.1866,-0.2034,-0.2035,-0.2035,-0.1986,0,-0.1537,-0.1571,-0.1595,-0.1637,-0.1654,-0.1698,-0.1733,-0.1778,-0.1818,-0.1856,-0.1899,-0.194,-0.1966,-0.1987,-0.2006,-0.2024,-0.2026,-0.2037,-0.2011,-0.2009,-0.1874,-0.1862,-0.2036,-0.1985,-0.1985,-0.1985,-0.1985,0,-0.1534,-0.1557,-0.1596,-0.1639,-0.1652,-0.1685,-0.1738,-0.1774,-0.1828,-0.1857,-0.1898,-0.1927,-0.1967,-0.1982,-0.2006,-0.2009,-0.2011,-0.2018,-0.2016,-0.1891,-0.1875,-0.1963,-0.1983,-0.1983,-0.1983,-0.1983,-0.1983,0,-0.1498,-0.1552,-0.1583,-0.16,-0.1658,-0.1688,-0.1721,-0.1777,-0.1799,-0.1854,-0.1869,-0.1917,-0.1935,-0.1955,-0.1974,-0.1991,-0.1977,-0.2,-0.1877,-0.1868,-0.2003,-0.2002,-0.2004,-0.2004,-0.2004,-0.2004,-0.2004,0,-0.1472,-0.15,-0.1572,-0.1585,-0.1617,-0.1668,-0.1701,-0.1741,-0.1787,-0.1793,-0.1862,-0.1863,-0.193,-0.1933,-0.1954,-0.1891,-0.1957,-0.186,-0.1842,-0.2003,-0.2003,-0.2,-0.2001,-0.2002,-0.2002,-0.2003,-0.2003,0,-0.1423,-0.1474,-0.1512,-0.1581,-0.16,-0.1625,-0.1677,-0.1687,-0.1746,-0.1754,-0.1768,-0.1818,-0.1812,-0.1852,-0.1871,-0.1837,-0.1815,-0.178,-0.1922,-0.1916,-0.1708,-0.1709,-0.1628,-0.1623,-0.1618,-0.1615,-0.1611,0,-0.1396,-0.1413,-0.1495,-0.151,-0.1544,-0.1583,-0.1594,-0.1658,-0.166,-0.1706,-0.1691,-0.1709,-0.173,-0.163,-0.1703,-0.1692,-0.1694,-0.166,-0.1707,-0.1676,-0.1668,-0.1676,-0.1683,-0.1605,-0.1603,-0.1602,-0.1601,0,-0.1342,-0.1391,-0.142,-0.1448,-0.1473,-0.1483,-0.1505,-0.1491,-0.1543,-0.1615,-0.1556,-0.1543,-0.1522,-0.1532,-0.1518,-0.1529,-0.1671,-0.1615,-0.1625,-0.1669,-0.1648,-0.1645,-0.1658,-0.1586,-0.1588,-0.159,-0.159,0,-0.1306,-0.1315,-0.1357,-0.1363,-0.1391,-0.1357,-0.1385,-0.1363,-0.137,-0.1424,-0.1399,-0.1432,-0.1485,-0.1445,-0.1445,-0.1423,-0.1427,-0.14,-0.1422,-0.144,-0.1406,-0.1352,-0.1164,0,0,0,0,0,-0.1258,-0.1247,-0.1256,-0.1257,-0.1277,-0.1279,-0.1306,-0.1335,-0.1388,-0.1302,-0.1342,-0.1317,-0.129,-0.132,-0.1264,-0.139,-0.1449,-0.1322,-0.1435,-0.1502,-0.1519,-0.15,0,0,0,0,0,0,-0.1222,-0.1241,-0.1226,-0.1154,-0.1127,-0.1126,-0.1133,-0.1172,-0.1129,-0.1196,-0.1186,-0.1244,-0.1243,-0.13,-0.1239,-0.125,-0.1295,-0.1358,-0.1354,-0.1492,-0.1508,-0.1522,-0.1508,0,0,0,0,0]},{"header":{"parameterUnit":"m.s-1","parameterCategory":2,"la1":30.2991,"la2":30.254,"lo1":-89.0895,"lo2":-89.0444,"dy":0.0017,"dx":0.0017,"nx":28,"ny":28,"refTime":"2026-01-31T03:00:00:Z","depth":"4","parameterNumber":3,"parameterNumberName":"V-component_of_CURRENTS"},"data":[0,0,0,0,0,0,0,0,0,0,0,0,0,0,0,0,0,0,0,0,0,0,0,0,0,0,0,0,0,0,0,0,0,0,0,0,0,0,0,0,0,0,0,0,0,0,0,0,0,0,0,0,0,0,0,0,0,0,0.024,0.024,0,0.0255,0.0255,0.0255,0.0285,0.0286,0.0286,0.0287,0.0322,0.0322,0.0322,0,0,0,0,0,0,0,0,0,0,0,0,0,0.0223,0.0224,0.024,0.024,0.0241,0.0255,0.0255,0.0255,0.0285,0.0286,0.0287,0.0287,0.0322,0.0322,0.0322,0,0,0,0,0,0,0,0,0,0,0,0,0,0.0233,0.0224,0.024,0.0257,0.0259,0.0255,0.0255,0.0255,0.0285,0.0286,0.0287,0.0288,0.0321,0.0322,0.0322,0.0306,0,0,0.0324,0.0324,0,0,0,0,0,0,0,0,0.0233,0.0234,0.0255,0.0256,0.0258,0.0269,0.0262,0.0273,0.0285,0.0275,0.0287,0.0288,0.0306,0.0307,0.0307,0.0308,0.031,0.0324,0.0324,0.0325,0.0325,0,0,0,0,0,0,0,0.0232,0.0233,0.0246,0.0255,0.0257,0.0259,0.0262,0.0264,0.0285,0.0276,0.0278,0.028,0.0307,0.0307,0.0308,0.031,0.0324,0.0324,0.0325,0.0325,0.0285,0.0284,0,0,0,0,0,0,0.023,0.0233,0.0245,0.0246,0.0248,0.0259,0.0262,0.0265,0.0284,0.0288,0.0279,0.0281,0.0305,0.0308,0.031,0.0277,0.0324,0.0325,0.0325,0.0287,0.0285,0.0284,0,0,0,0,0,0,0.023,0.0231,0.0245,0.024,0.0242,0.0258,0.0261,0.0264,0.0269,0.0287,0.0291,0.0281,0.0306,0.0309,0.0301,0.0279,0.0325,0.0326,0.0288,0.0286,0.0284,0.0221,0,0,0,0,0,0,0.0229,0.0231,0.0231,0.024,0.0242,0.0237,0.026,0.0264,0.0268,0.0271,0.0289,0.0293,0.0307,0.03,0.0301,0.0281,0.0326,0.029,0.0287,0.0285,0.0225,0.0217,0.021,0,0,0,0,0,0.0229,0.0223,0.0231,0.0232,0.0242,0.0236,0.0237,0.0252,0.0267,0.0261,0.0269,0.0293,0.0285,0.0299,0.0301,0.028,0.0291,0.0288,0.0285,0.0228,0.0218,0.021,0,0,0,0,0,0,0.0212,0.0226,0.0234,0.0232,0.0233,0.0241,0.0238,0.0249,0.025,0.0255,0.0276,0.0279,0.0263,0.0278,0.0293,0.026,0.0292,0.0289,0.0248,0.0239,0.0232,0.0229,0.0326,0,0,0,0,0,0.0209,0.021,0.0218,0.0215,0.0216,0.0227,0.0227,0.0236,0.0239,0.0242,0.0251,0.0257,0.025,0.025,0.025,0.0233,0.0246,0.022,0.0213,0.0207,0.0205,0.0196,0.0188,0.0274,0.0274,0.0274,0,0,0.0201,0.0208,0.0209,0.0212,0.0216,0.0202,0.0229,0.0226,0.021,0.0244,0.0226,0.0233,0.0239,0.0217,0.0212,0.0228,0.0188,0.0203,0.0198,0.0199,0.0192,0.0184,0.0177,0.0272,0.0272,0.0272,0,0,0.0182,0.0192,0.0186,0.0183,0.0186,0.0186,0.0184,0.0188,0.0187,0.0169,0.0184,0.0175,0.0173,0.0167,0.0164,0.0116,0.0149,0.012,0.0083,0.0074,0.0067,0.0061,0.0062,0.0057,0.0117,0.0117,0.0117,0,0.0172,0.0166,0.018,0.0169,0.016,0.0175,0.0156,0.015,0.0148,0.0138,0.0156,0.0135,0.0145,0.0109,0.0095,0.01,0.0108,0.0116,0.0065,0.0059,0.0054,0.0057,0.0052,0.0114,0.0114,0.0114,0.0115,0,0.0148,0.014,0.0133,0.0123,0.0112,0.0098,0.0091,0.0077,0.0079,0.0075,0.0048,0.0054,0.0045,0.0041,0.0055,0.0019,0.004,0.0056,0.0088,0.0042,0.0048,0.0044,0.0109,0.011,0.0111,0.0112,0,0,0.0131,0.0119,0.0116,0.0101,0.0087,0.0073,0.0039,0.0011,-0.0013,-0.0016,-0.0047,-0.006,-0.0044,-0.0046,-0.0033,-0.0039,-0.0066,-0.0005,-0.0004,-0.0001,-0.0077,-0.004,-0.004,-0.0055,-0.0056,-0.0057,-0.0061,0,0.0107,0.0078,0.0074,0.0032,0.0015,0.0006,-0.0031,-0.0054,-0.0067,-0.0095,-0.0093,-0.0113,-0.0082,-0.0086,-0.0091,-0.0071,-0.0078,-0.0066,-0.0035,-0.0034,0.0007,-0.0044,-0.006,-0.0064,-0.0064,-0.0065,-0.0066,0,0.0084,0.0067,0.0029,-0.0013,-0.0024,-0.0054,-0.0107,-0.0135,-0.0168,-0.0175,-0.019,-0.018,-0.0196,-0.0158,-0.0154,-0.0144,-0.0118,-0.0099,-0.0098,-0.0042,-0.0004,-0.0007,-0.0072,-0.0072,-0.0071,-0.0071,-0.007,0,0.0069,0.0031,-0.0001,-0.0014,-0.0058,-0.0089,-0.012,-0.0161,-0.0191,-0.0222,-0.0239,-0.0249,-0.0253,-0.0231,-0.0182,-0.0171,-0.0166,-0.0147,-0.0092,-0.0089,-0.0091,-0.0084,-0.015,-0.015,-0.015,-0.015,-0.015,0,0.0047,0.0019,-0.0012,-0.003,-0.0086,-0.011,-0.0171,-0.0199,-0.0241,-0.0278,-0.0276,-0.0299,-0.027,-0.0257,-0.0209,-0.0161,-0.0189,-0.0109,-0.0094,-0.0118,-0.0115,-0.0093,-0.0087,-0.015,-0.015,-0.015,-0.015,0,0.0039,0.0022,-0.0017,-0.0067,-0.0091,-0.0129,-0.0201,-0.024,-0.0272,-0.032,-0.033,-0.0344,-0.0323,-0.0282,-0.0245,-0.0196,-0.0152,-0.0125,-0.0154,-0.0138,-0.0064,-0.006,-0.008,-0.0078,-0.0077,-0.0077,-0.0076,0,0.0034,0.0016,-0.0039,-0.0066,-0.0092,-0.0152,-0.0196,-0.025,-0.0286,-0.0343,-0.0362,-0.0366,-0.0359,-0.0286,-0.0238,-0.0157,-0.0132,-0.011,-0.009,-0.0076,-0.006,-0.0058,-0.0056,-0.0074,-0.0074,-0.0074,-0.0074,0,0.0025,0.001,-0.0021,-0.0072,-0.0121,-0.0177,-0.024,-0.0273,-0.0329,-0.0361,-0.0384,-0.0358,-0.0335,-0.0278,-0.0212,-0.0151,-0.0127,-0.0099,-0.01,-0.0082,-0.007,-0.0054,-0.0054,-0.007,-0.0071,-0.0071,-0.0071,0,0.0021,0.0003,-0.0029,-0.0075,-0.0131,-0.0182,-0.0226,-0.0274,-0.0316,-0.0373,-0.0381,-0.0363,-0.0364,-0.0276,-0.0218,-0.0152,-0.0131,-0.01,-0.0101,-0.0104,-0.0099,-0.0086,-0.009,0,0,0,0,0,0.0023,0.0009,-0.0033,-0.0083,-0.0135,-0.0158,-0.0243,-0.0281,-0.0341,-0.0351,-0.0366,-0.0339,-0.0269,-0.0253,-0.018,-0.0189,-0.0114,-0.0099,-0.0076,-0.0051,-0.0055,-0.0041,0,0,0,0,0,0,0.0023,-0.0005,-0.0022,-0.007,-0.0094,-0.0154,-0.0198,-0.0244,-0.0256,-0.0307,-0.0274,-0.0285,-0.022,-0.0288,-0.0159,-0.0146,-0.0115,-0.0078,-0.0076,-0.0049,-0.0053,-0.0056,-0.0043,0,0,0,0,0]}]]